�N����,����,�~����,�C��,���x,�C��,����,���ϕ���,�ő�u�ԕ���,�ő厞����,���˗�,�I�_���x,�n�����x,�ő啗���N��,DTYPE
"19/05/19","00:10",0.0,19.7,65.1,1014.5,116.0,1.5,4.1,112.5,0.00,13.0,18.4,"00:00:08",1
"19/05/19","00:20",0.0,19.7,65.4,1014.2,112.9,1.6,3.5,121.8,0.00,13.1,18.7,"00:10:08",1
"19/05/19","00:30",0.0,19.7,65.9,1014.0,115.8,1.3,3.1,131.1,0.00,13.2,18.7,"00:22:16",1
"19/05/19","00:40",0.0,19.7,66.1,1013.8,115.0,2.0,4.8,115.0,0.00,13.2,18.4,"00:36:16",1
"19/05/19","00:50",0.0,19.7,66.9,1014.2,134.8,1.6,4.0,120.9,0.00,13.4,18.5,"00:43:44",1
"19/05/19","01:00",0.0,18.9,71.2,1014.2,131.0,2.2,4.7,137.2,0.00,13.6,18.5,"00:57:28",1
"19/05/19","01:10",0.0,18.9,72.3,1013.5,123.3,2.1,5.2,122.1,0.00,13.9,18.7,"01:07:36",1
"19/05/19","01:20",0.0,19.0,71.6,1014.0,124.4,2.3,4.4,146.6,0.00,13.8,18.5,"01:14:48",1
"19/05/19","01:30",0.0,19.0,71.1,1014.0,137.8,1.6,3.3,127.2,0.00,13.7,18.6,"01:26:08",1
"19/05/19","01:40",0.0,19.2,69.4,1014.2,108.4,1.8,3.9,138.2,0.00,13.5,18.4,"01:31:36",1
"19/05/19","01:50",0.0,19.1,69.0,1014.0,104.3,1.2,2.2,100.3,0.00,13.3,18.3,"01:46:16",1
"19/05/19","02:00",0.0,19.0,70.6,1013.8,113.6,1.3,2.6,96.7,0.00,13.6,18.5,"01:56:16",1
"19/05/19","02:10",0.0,18.9,71.5,1013.5,108.6,1.5,4.2,120.7,0.00,13.7,18.2,"02:08:00",1
"19/05/19","02:20",0.0,18.7,72.3,1013.5,105.9,1.1,2.6,128.1,0.00,13.7,18.3,"02:16:56",1
"19/05/19","02:30",0.0,18.6,73.1,1013.5,99.7,1.0,2.5,163.3,0.00,13.7,18.3,"02:24:00",1
"19/05/19","02:40",0.0,18.6,73.7,1013.3,100.4,1.2,3.6,117.9,0.00,13.9,18.3,"02:31:52",1
"19/05/19","02:50",0.0,18.7,73.6,1013.8,99.8,0.8,3.4,130.0,0.00,13.9,18.1,"02:48:32",1
"19/05/19","03:00",0.0,18.9,73.1,1013.5,86.2,1.1,2.4,86.9,0.00,14.0,18.2,"02:50:56",1
"19/05/19","03:10",0.0,18.6,72.9,1013.3,107.8,1.0,2.6,143.4,0.00,13.7,18.2,"03:06:24",1
"19/05/19","03:20",0.0,18.5,72.6,1013.3,109.6,1.0,2.7,120.6,0.00,13.5,18.2,"03:18:32",1
"19/05/19","03:30",0.0,18.4,72.4,1013.5,112.9,1.2,2.4,134.5,0.00,13.4,18.2,"03:29:04",1
"19/05/19","03:40",0.0,18.4,71.6,1013.3,118.8,1.3,3.1,133.9,0.00,13.2,18.1,"03:32:00",1
"19/05/19","03:50",0.0,18.4,70.6,1013.0,136.0,1.3,3.4,113.7,0.00,13.0,18.0,"03:40:40",1
"19/05/19","04:00",0.0,18.1,70.9,1013.5,151.7,0.8,1.9,159.2,0.00,12.8,18.1,"03:50:32",1
"19/05/19","04:10",0.0,18.2,70.6,1013.5,120.9,0.8,3.1,124.3,0.00,12.8,17.8,"04:03:20",1
"19/05/19","04:20",0.0,18.0,70.7,1013.5,144.6,0.6,2.2,117.3,0.00,12.6,17.9,"04:13:04",1
"19/05/19","04:30",0.0,18.1,72.0,1013.5,144.8,1.0,2.7,152.6,0.00,13.0,17.9,"04:24:40",1
"19/05/19","04:40",0.0,18.2,71.8,1013.8,141.0,1.1,3.7,124.3,0.00,13.1,17.9,"04:39:44",1
"19/05/19","04:50",0.0,18.3,71.4,1013.3,142.7,1.2,3.1,121.4,0.00,13.1,18.0,"04:46:56",1
"19/05/19","05:00",0.0,18.0,71.5,1013.8,134.1,0.5,1.8,117.2,0.00,12.8,17.9,"04:57:52",1
"19/05/19","05:10",0.0,17.9,72.8,1013.8,317.0,0.5,1.9,125.0,0.00,13.0,17.6,"05:01:28",1
"19/05/19","05:20",0.0,17.9,73.2,1013.8,82.3,0.5,1.9,98.0,0.00,13.1,17.7,"05:13:04",1
"19/05/19","05:30",0.0,18.1,73.8,1013.8,74.3,0.7,1.4,83.6,0.00,13.4,17.5,"05:24:32",1
"19/05/19","05:40",0.0,18.1,73.3,1014.0,53.4,0.5,1.9,148.3,0.00,13.3,17.4,"05:33:44",1
"19/05/19","05:50",0.0,18.1,74.6,1014.0,167.9,0.5,1.9,141.4,0.00,13.6,17.5,"05:49:52",1
"19/05/19","06:00",0.0,18.4,74.5,1014.0,99.1,0.5,1.8,190.0,0.01,13.8,17.7,"05:51:44",1
"19/05/19","06:10",0.0,18.7,73.7,1014.0,87.8,0.7,1.8,146.9,0.01,14.0,17.6,"06:08:40",1
"19/05/19","06:20",0.0,18.9,73.1,1013.8,100.8,0.6,2.7,105.1,0.02,14.0,17.7,"06:19:44",1
"19/05/19","06:30",0.0,19.2,72.9,1013.8,103.4,0.8,2.2,129.3,0.03,14.3,17.8,"06:28:56",1
"19/05/19","06:40",0.0,19.6,71.8,1013.8,87.1,0.7,1.6,147.9,0.06,14.4,17.8,"06:33:04",1
"19/05/19","06:50",0.0,19.9,71.0,1014.0,90.8,1.2,3.2,118.0,0.07,14.5,17.9,"06:45:04",1
"19/05/19","07:00",0.0,20.1,69.5,1014.0,93.4,1.2,3.4,107.2,0.09,14.4,18.1,"06:55:28",1
"19/05/19","07:10",0.0,20.4,69.2,1013.8,132.3,1.3,3.3,128.7,0.10,14.6,18.2,"07:07:52",1
"19/05/19","07:20",0.0,20.4,67.7,1013.8,115.5,1.3,3.2,93.0,0.10,14.3,18.1,"07:10:32",1
"19/05/19","07:30",0.0,20.5,67.8,1013.8,136.0,1.3,3.7,137.1,0.11,14.4,18.3,"07:21:28",1
"19/05/19","07:40",0.0,20.6,65.5,1013.8,122.5,2.0,5.7,123.8,0.15,14.0,18.3,"07:33:28",1
"19/05/19","07:50",0.0,21.4,65.2,1013.3,104.4,1.5,3.5,145.3,0.16,14.6,18.6,"07:42:40",1
"19/05/19","08:00",0.0,21.1,65.1,1013.8,118.7,2.0,4.3,123.1,0.17,14.3,18.4,"07:55:20",1
"19/05/19","08:10",0.0,20.9,65.9,1013.8,131.0,1.8,5.5,141.5,0.10,14.3,18.7,"08:04:32",1
"19/05/19","08:20",0.0,20.9,64.6,1013.5,100.7,2.0,5.7,112.2,0.11,14.0,18.6,"08:16:08",1
"19/05/19","08:30",0.0,21.6,64.8,1013.3,109.3,2.0,4.2,127.5,0.24,14.7,18.8,"08:28:48",1
"19/05/19","08:40",0.0,21.6,63.6,1013.3,102.8,1.7,3.9,130.4,0.20,14.4,18.8,"08:34:32",1
"19/05/19","08:50",0.0,21.6,62.9,1013.8,106.3,2.2,4.5,124.5,0.18,14.3,19.2,"08:44:56",1
"19/05/19","09:00",0.0,21.7,63.2,1013.3,140.2,2.6,5.5,154.3,0.15,14.4,19.4,"08:55:52",1
"19/05/19","09:10",0.0,21.5,61.9,1013.5,124.3,2.2,5.8,142.3,0.13,13.9,19.2,"09:08:24",1
"19/05/19","09:20",0.0,22.0,60.8,1013.3,133.0,2.2,4.4,129.7,0.17,14.1,19.3,"09:11:36",1
"19/05/19","09:30",0.0,22.1,60.7,1013.3,142.1,2.2,5.7,98.1,0.15,14.2,19.5,"09:22:00",1
"19/05/19","09:40",0.0,22.7,58.4,1013.0,144.6,3.0,7.0,163.1,0.30,14.2,19.5,"09:35:20",1
"19/05/19","09:50",0.0,22.9,59.6,1013.0,144.0,3.0,5.2,167.9,0.28,14.7,19.7,"09:41:36",1
"19/05/19","10:00",0.0,23.8,55.4,1012.8,131.2,2.6,5.1,147.1,0.50,14.4,20.1,"09:58:32",1
"19/05/19","10:10",0.0,24.4,53.9,1012.6,133.8,3.2,5.8,132.4,0.54,14.5,20.4,"10:03:12",1
"19/05/19","10:20",0.0,24.9,54.6,1011.9,127.4,3.0,6.3,117.5,0.49,15.2,20.7,"10:17:36",1
"19/05/19","10:30",0.0,23.8,57.2,1012.3,112.8,2.0,5.0,116.5,0.24,14.9,20.6,"10:27:04",1
"19/05/19","10:40",0.0,23.0,57.8,1012.1,111.3,2.2,5.1,120.0,0.18,14.3,20.7,"10:32:24",1
"19/05/19","10:50",0.0,22.7,59.2,1011.9,116.0,2.5,7.4,105.4,0.15,14.4,20.6,"10:44:48",1
"19/05/19","11:00",0.0,22.8,59.3,1011.6,100.7,2.2,5.0,130.6,0.15,14.5,20.6,"10:56:40",1
"19/05/19","11:10",0.0,23.2,59.4,1011.9,123.0,2.3,5.8,112.7,0.17,14.9,20.7,"11:06:48",1
"19/05/19","11:20",0.0,22.7,59.9,1011.9,120.2,2.3,6.2,123.3,0.11,14.6,20.8,"11:12:08",1
"19/05/19","11:30",0.0,22.9,58.2,1012.1,120.4,2.7,6.0,121.2,0.12,14.3,20.6,"11:28:16",1
"19/05/19","11:40",0.0,23.2,55.5,1012.1,134.6,3.1,5.7,148.0,0.17,13.8,20.8,"11:33:28",1
"19/05/19","11:50",0.0,23.0,57.0,1012.1,125.8,3.2,6.7,126.2,0.19,14.1,20.8,"11:43:52",1
"19/05/19","12:00",0.0,23.4,57.3,1011.9,134.6,2.6,5.4,133.0,0.18,14.5,20.9,"11:57:36",1
"19/05/19","12:10",0.0,23.4,55.4,1011.6,146.6,3.6,7.3,121.4,0.21,14.0,20.7,"12:02:08",1
"19/05/19","12:20",0.0,23.6,54.2,1011.4,144.8,3.7,6.7,149.5,0.26,13.9,20.9,"12:10:16",1
"19/05/19","12:30",0.0,23.8,53.0,1011.4,145.3,3.9,6.8,111.1,0.34,13.7,21.2,"12:28:56",1
"19/05/19","12:40",0.0,23.7,54.2,1011.2,144.2,3.0,6.6,120.4,0.20,13.9,21.2,"12:34:16",1
"19/05/19","12:50",0.0,22.9,57.7,1011.2,135.3,4.1,8.3,110.0,0.16,14.2,21.1,"12:43:36",1
"19/05/19","13:00",0.0,23.0,57.0,1011.4,112.3,3.4,8.1,116.2,0.16,14.1,21.3,"12:58:32",1
"19/05/19","13:10",0.0,22.6,55.9,1011.4,141.3,3.9,6.4,154.8,0.13,13.4,21.1,"13:05:36",1
"19/05/19","13:20",0.0,23.1,54.5,1011.4,137.9,4.1,7.8,148.3,0.16,13.5,21.2,"13:19:36",1
"19/05/19","13:30",0.0,23.4,53.5,1011.4,134.5,3.0,5.6,132.7,0.16,13.5,21.2,"13:22:24",1
"19/05/19","13:40",0.0,23.5,51.3,1011.4,151.9,4.0,8.2,160.6,0.20,12.9,21.2,"13:31:28",1
"19/05/19","13:50",0.0,24.3,49.8,1011.6,130.1,4.5,8.7,138.6,0.37,13.2,21.5,"13:44:00",1
"19/05/19","14:00",0.0,23.7,51.1,1011.4,135.7,3.4,6.8,122.5,0.19,13.0,21.2,"13:52:08",1
"19/05/19","14:10",0.0,23.4,51.7,1011.2,135.4,3.5,6.0,124.8,0.15,12.9,21.2,"14:08:08",1
"19/05/19","14:20",0.0,23.2,53.3,1011.2,148.3,3.7,6.2,149.9,0.13,13.2,21.1,"14:10:08",1
"19/05/19","14:30",0.0,23.2,53.3,1011.2,138.6,3.1,7.5,120.0,0.11,13.2,21.3,"14:24:40",1
"19/05/19","14:40",0.0,23.5,52.0,1011.2,138.1,2.6,6.8,159.4,0.12,13.1,21.4,"14:32:08",1
"19/05/19","14:50",0.0,23.5,51.1,1011.2,140.6,3.9,7.9,131.1,0.16,12.9,21.3,"14:49:28",1
"19/05/19","15:00",0.0,23.5,51.7,1010.9,143.0,4.0,10.3,125.3,0.18,13.0,21.3,"14:51:44",1
"19/05/19","15:10",0.0,23.5,52.9,1010.7,145.0,2.8,6.8,149.8,0.13,13.4,21.3,"15:03:04",1
"19/05/19","15:20",0.0,23.2,54.5,1010.4,135.8,3.2,6.0,137.3,0.12,13.6,21.1,"15:11:36",1
"19/05/19","15:30",0.0,23.3,56.5,1010.2,136.7,2.2,5.1,152.5,0.11,14.2,21.3,"15:25:04",1
"19/05/19","15:40",0.0,23.1,55.8,1010.4,136.9,2.3,7.4,140.5,0.10,13.8,21.2,"15:35:52",1
"19/05/19","15:50",0.0,23.2,56.6,1010.7,118.9,1.6,4.5,125.9,0.07,14.1,21.2,"15:41:20",1
"19/05/19","16:00",0.0,23.4,53.8,1010.4,129.8,2.8,6.2,131.9,0.08,13.6,21.4,"15:59:52",1
"19/05/19","16:10",0.0,23.1,54.1,1010.7,145.3,3.2,6.8,132.0,0.06,13.4,21.0,"16:07:04",1
"19/05/19","16:20",0.0,23.1,54.5,1010.7,142.4,2.6,6.0,208.0,0.04,13.5,21.2,"16:12:16",1
"19/05/19","16:30",0.0,23.1,54.3,1010.7,138.7,3.0,5.7,130.6,0.04,13.4,21.0,"16:23:12",1
"19/05/19","16:40",0.0,23.0,54.6,1010.4,142.8,2.3,5.4,153.7,0.05,13.4,20.9,"16:31:20",1
"19/05/19","16:50",0.0,22.9,54.9,1010.4,141.5,2.8,5.5,121.0,0.03,13.4,21.0,"16:44:16",1
"19/05/19","17:00",0.0,22.9,54.4,1010.4,144.5,2.8,5.0,144.5,0.02,13.3,20.9,"16:58:56",1
"19/05/19","17:10",0.0,22.9,54.4,1010.7,154.0,3.2,7.5,131.1,0.03,13.3,20.9,"17:07:52",1
"19/05/19","17:20",0.0,22.5,55.6,1010.4,147.2,3.7,8.1,151.6,0.02,13.2,20.8,"17:13:44",1
"19/05/19","17:30",0.0,22.5,55.4,1010.7,131.8,2.7,5.8,133.9,0.04,13.2,20.8,"17:22:40",1
"19/05/19","17:40",0.0,22.6,54.6,1010.4,143.5,2.7,7.5,126.2,0.06,13.0,20.7,"17:32:16",1
"19/05/19","17:50",0.0,22.6,54.0,1010.7,150.7,4.0,8.0,125.8,0.08,12.9,20.6,"17:40:56",1
"19/05/19","18:00",0.0,22.5,54.1,1010.2,151.3,4.1,7.7,135.2,0.06,12.8,20.7,"17:57:28",1
"19/05/19","18:10",0.0,22.4,54.7,1010.7,156.0,3.7,7.9,137.7,0.03,12.9,20.6,"18:04:32",1
"19/05/19","18:20",0.0,22.4,55.7,1010.4,144.7,2.3,4.8,120.2,0.03,13.2,20.6,"18:18:56",1
"19/05/19","18:30",0.0,21.9,57.2,1010.7,141.8,3.2,5.6,139.2,0.01,13.1,20.6,"18:22:40",1
"19/05/19","18:40",0.0,21.6,58.5,1010.7,144.0,3.0,7.0,137.4,0.01,13.2,20.3,"18:32:08",1
"19/05/19","18:50",0.0,21.5,58.9,1011.2,134.5,2.5,7.0,133.9,0.00,13.2,20.3,"18:41:20",1
"19/05/19","19:00",0.0,21.2,59.4,1010.9,141.1,2.7,6.5,113.8,0.00,13.0,20.3,"18:51:28",1
"19/05/19","19:10",0.0,21.1,60.3,1010.7,138.9,2.2,5.1,114.3,0.00,13.2,20.1,"19:00:02",1
"19/05/19","19:20",0.0,20.9,62.0,1010.9,157.7,2.0,3.5,116.1,0.00,13.4,20.1,"19:16:48",1
"19/05/19","19:30",0.0,20.9,61.6,1010.9,141.7,2.6,6.0,133.2,0.00,13.3,20.0,"19:27:52",1
"19/05/19","19:40",0.0,20.6,62.4,1011.2,152.5,2.0,4.7,141.8,0.00,13.2,19.8,"19:31:20",1
"19/05/19","19:50",0.0,20.4,63.4,1010.7,163.5,2.3,4.7,144.9,0.00,13.3,19.9,"19:46:40",1
"19/05/19","20:00",0.0,20.3,63.3,1010.9,138.7,2.2,4.8,136.2,0.00,13.1,19.8,"19:52:32",1
"19/05/19","20:10",0.0,20.3,63.1,1011.2,149.1,2.2,4.3,131.2,0.00,13.1,19.7,"20:07:52",1
"19/05/19","20:20",0.0,20.2,63.0,1010.9,148.2,2.2,4.8,138.4,0.00,13.0,19.8,"20:17:12",1
"19/05/19","20:30",0.0,20.2,62.9,1011.2,149.7,2.3,4.8,130.3,0.00,13.0,19.7,"20:22:32",1
"19/05/19","20:40",0.0,20.0,62.7,1010.9,134.0,1.7,3.9,136.7,0.00,12.7,19.6,"20:36:48",1
"19/05/19","20:50",0.0,19.8,63.3,1011.6,116.1,0.8,2.4,108.7,0.00,12.7,19.6,"20:48:56",1
"19/05/19","21:00",0.0,19.8,63.3,1011.6,98.1,1.3,3.2,86.7,0.00,12.7,19.4,"20:59:12",1
"19/05/19","21:10",0.0,19.9,63.2,1011.6,112.4,1.7,3.7,102.4,0.00,12.7,19.4,"21:08:00",1
"19/05/19","21:20",0.0,19.9,63.3,1011.4,108.3,1.7,4.4,116.0,0.00,12.8,19.4,"21:17:52",1
"19/05/19","21:30",0.0,19.7,64.0,1011.9,119.5,1.2,4.2,122.6,0.00,12.7,19.3,"21:20:48",1
"19/05/19","21:40",0.0,19.6,64.5,1011.6,133.2,1.5,4.1,130.2,0.00,12.8,19.2,"21:30:48",1
"19/05/19","21:50",0.0,19.7,64.2,1011.9,135.3,1.8,4.0,127.8,0.00,12.8,19.2,"21:48:32",1
"19/05/19","22:00",0.0,19.8,63.6,1011.6,122.7,1.8,4.5,158.6,0.00,12.7,19.2,"21:51:04",1
"19/05/19","22:10",0.0,19.7,64.3,1012.1,115.1,1.5,3.4,122.1,0.00,12.8,19.1,"22:08:00",1
"19/05/19","22:20",0.0,19.7,64.4,1012.1,115.1,1.5,4.0,123.6,0.00,12.8,19.1,"22:10:16",1
"19/05/19","22:30",0.0,19.6,64.8,1012.3,108.9,1.2,3.4,142.9,0.00,12.8,19.1,"22:20:32",1
"19/05/19","22:40",0.0,19.4,65.4,1011.9,111.0,1.1,3.1,98.1,0.00,12.8,18.9,"22:33:04",1
"19/05/19","22:50",0.0,19.6,64.9,1011.9,129.1,2.0,4.3,158.6,0.00,12.9,18.9,"22:44:56",1
"19/05/19","23:00",0.0,19.6,64.5,1012.1,139.4,2.1,5.4,140.9,0.00,12.8,18.8,"22:51:36",1
"19/05/19","23:10",0.0,19.5,65.3,1011.6,127.4,1.3,2.8,151.2,0.00,12.9,18.9,"23:08:32",1
"19/05/19","23:20",0.0,19.4,66.0,1011.6,123.8,1.5,4.0,123.5,0.00,12.9,18.8,"23:11:28",1
"19/05/19","23:30",0.0,19.4,66.1,1011.6,130.6,1.5,5.2,146.0,0.00,13.0,18.7,"23:21:36",1
"19/05/19","23:40",0.0,19.3,66.8,1011.6,105.1,1.2,3.4,120.2,0.00,13.0,18.4,"23:31:36",1
"19/05/19","23:50",0.0,19.3,67.1,1011.4,120.7,1.5,4.0,127.3,0.00,13.1,18.7,"23:44:40",1
"19/05/19","24:00",0.0,19.3,67.3,1011.2,132.0,1.8,3.7,121.8,0.00,13.1,18.7,"23:51:20",1
